TimeCDT,TemperatureF,Dew PointF,Humidity,Sea Level PressureIn,VisibilityMPH,Wind Direction,Wind SpeedMPH,Gust SpeedMPH,PrecipitationIn,Events,Conditions,WindDirDegrees,DateUTC
12:53 AM,53.1,46.9,80,30.19,10.0,North,4.6,-,N/A,,Mostly Cloudy,10,2012-10-08 05:53:00
1:53 AM,53.1,44.1,71,30.19,10.0,North,8.1,-,0.00,,Mostly Cloudy,10,2012-10-08 06:53:00
2:53 AM,52.0,45.0,77,30.20,10.0,North,11.5,-,N/A,,Overcast,350,2012-10-08 07:53:00
3:53 AM,52.0,45.0,77,30.19,10.0,North,12.7,-,N/A,,Overcast,10,2012-10-08 08:53:00
4:51 AM,51.8,44.6,76,30.19,10.0,North,10.4,19.6,N/A,,Overcast,10,2012-10-08 09:51:00
4:53 AM,51.1,45.0,80,30.22,10.0,North,10.4,19.6,N/A,,Overcast,10,2012-10-08 09:53:00
5:31 AM,48.2,44.6,87,30.20,10.0,North,11.5,-,0.00,Rain,Light Rain,10,2012-10-08 10:31:00
5:53 AM,48.9,45.0,86,30.22,10.0,North,9.2,-,0.00,,Overcast,10,2012-10-08 10:53:00
6:53 AM,48.9,46.0,90,30.24,10.0,NNE,5.8,-,0.00,,Overcast,20,2012-10-08 11:53:00
7:13 AM,48.2,46.4,93,30.22,10.0,North,8.1,-,N/A,,Overcast,10,2012-10-08 12:13:00
7:53 AM,50.0,46.9,89,30.25,10.0,North,4.6,-,N/A,,Overcast,10,2012-10-08 12:53:00
8:53 AM,52.0,46.9,83,30.27,10.0,NNE,8.1,-,N/A,,Overcast,20,2012-10-08 13:53:00
9:53 AM,54.0,46.9,77,30.27,10.0,NNE,8.1,-,N/A,,Overcast,30,2012-10-08 14:53:00
10:22 AM,55.4,46.4,72,30.25,10.0,NNE,6.9,-,N/A,,Overcast,30,2012-10-08 15:22:00
10:36 AM,55.4,46.4,72,30.25,10.0,NNE,6.9,-,N/A,,Overcast,20,2012-10-08 15:36:00
10:53 AM,57.0,46.9,69,30.27,10.0,NNE,3.5,-,N/A,,Overcast,30,2012-10-08 15:53:00
11:53 AM,61.0,46.9,60,30.25,10.0,North,6.9,-,N/A,,Scattered Clouds,10,2012-10-08 16:53:00
12:53 PM,60.1,46.9,62,30.24,10.0,NNE,4.6,-,N/A,,Mostly Cloudy,20,2012-10-08 17:53:00
1:53 PM,61.0,46.9,60,30.21,10.0,NNE,6.9,-,N/A,,Mostly Cloudy,20,2012-10-08 18:53:00
2:53 PM,60.1,46.9,62,30.19,10.0,North,8.1,-,N/A,,Overcast,10,2012-10-08 19:53:00
3:53 PM,61.0,46.0,58,30.17,10.0,North,6.9,-,N/A,,Mostly Cloudy,10,2012-10-08 20:53:00
4:53 PM,61.0,46.0,58,30.17,10.0,Variable,4.6,-,N/A,,Partly Cloudy,0,2012-10-08 21:53:00
5:53 PM,57.9,46.9,67,30.18,10.0,NNW,3.5,-,N/A,,Scattered Clouds,330,2012-10-08 22:53:00
6:53 PM,51.1,46.9,86,30.17,10.0,ENE,3.5,-,N/A,,Clear,70,2012-10-08 23:53:00
7:53 PM,44.1,43.0,96,30.17,10.0,Calm,Calm,-,N/A,,Clear,0,2012-10-09 00:53:00
8:53 PM,42.1,41.0,96,30.18,9.0,Calm,Calm,-,N/A,,Clear,0,2012-10-09 01:53:00
9:53 PM,41.0,39.9,96,30.18,7.0,Calm,Calm,-,N/A,,Clear,0,2012-10-09 02:53:00
10:53 PM,39.0,37.9,96,30.18,8.0,Calm,Calm,-,N/A,,Clear,0,2012-10-09 03:53:00
11:08 PM,39.2,37.4,93,30.16,0.5,Calm,Calm,-,N/A,Fog,Fog,0,2012-10-09 04:08:00
11:53 PM,37.9,37.9,100,30.18,0.5,Calm,Calm,-,N/A,Fog,Fog,0,2012-10-09 04:53:00